Time,TemperatureF,DewpointF,PressureIn,WindDirection,WindDirectionDegrees,WindSpeedMPH,WindSpeedGustMPH,Humidity,HourlyPrecipIn,Conditions,Clouds,dailyrainin,SolarRadiationWatts/m^2,SoftwareType,DateUTC
2013-04-13 00:10:00,40.8,39.0,29.73,NNE,13,12.0,13.0,92,0.00,,,0.00,0,weatherlink.com 1.10,2013-04-13 04:10:00,
2013-04-13 00:25:00,40.7,39.0,29.72,NE,34,8.0,14.0,92,0.00,,,0.00,0,weatherlink.com 1.10,2013-04-13 04:25:00,
2013-04-13 00:40:00,40.5,38.0,29.73,NNE,13,3.0,15.0,92,0.00,,,0.00,0,weatherlink.com 1.10,2013-04-13 04:40:00,
2013-04-13 00:55:00,40.5,38.0,29.72,North,350,7.0,13.0,92,0.00,,,0.00,0,weatherlink.com 1.10,2013-04-13 04:55:00,
2013-04-13 01:10:00,40.4,38.0,29.74,NNW,344,5.0,13.0,92,0.00,,,0.00,0,weatherlink.com 1.10,2013-04-13 05:10:00,
2013-04-13 01:25:00,40.3,38.0,29.74,North,360,2.0,14.0,92,0.00,,,0.00,0,weatherlink.com 1.10,2013-04-13 05:25:00,
2013-04-13 01:40:00,40.1,38.0,29.74,NNW,339,8.0,14.0,92,0.00,,,0.00,0,weatherlink.com 1.10,2013-04-13 05:40:00,
2013-04-13 01:55:00,40.0,38.0,29.76,WNW,292,6.0,14.0,92,0.00,,,0.00,0,weatherlink.com 1.10,2013-04-13 05:55:00,
2013-04-13 02:10:00,39.9,38.0,29.73,NNE,19,8.0,12.0,92,0.00,,,0.00,0,weatherlink.com 1.10,2013-04-13 06:10:00,
2013-04-13 02:25:00,39.9,38.0,29.74,North,10,13.0,13.0,92,0.00,,,0.00,0,weatherlink.com 1.10,2013-04-13 06:25:00,
2013-04-13 02:40:00,40.0,38.0,29.71,NNE,26,9.0,14.0,92,0.00,,,0.00,0,weatherlink.com 1.10,2013-04-13 06:40:00,
2013-04-13 02:55:00,40.0,38.0,29.70,NNE,30,1.0,10.0,92,0.01,,,0.01,0,weatherlink.com 1.10,2013-04-13 06:55:00,
2013-04-13 03:10:00,39.9,38.0,29.71,North,5,6.0,13.0,92,0.01,,,0.01,0,weatherlink.com 1.10,2013-04-13 07:10:00,
2013-04-13 03:25:00,39.8,38.0,29.73,WNW,293,10.0,12.0,92,0.01,,,0.01,0,weatherlink.com 1.10,2013-04-13 07:25:00,
2013-04-13 03:40:00,39.7,38.0,29.73,NNW,327,4.0,14.0,92,0.01,,,0.01,0,weatherlink.com 1.10,2013-04-13 07:40:00,
2013-04-13 03:55:00,39.7,37.0,29.74,NNW,346,5.0,10.0,91,0.00,,,0.01,0,weatherlink.com 1.10,2013-04-13 07:55:00,
2013-04-13 04:10:00,39.6,37.0,29.75,NNW,331,2.0,8.0,91,0.00,,,0.01,0,weatherlink.com 1.10,2013-04-13 08:10:00,
2013-04-13 04:25:00,39.6,37.0,29.77,North,355,2.0,8.0,91,0.00,,,0.01,0,weatherlink.com 1.10,2013-04-13 08:25:00,
2013-04-13 04:40:00,39.6,37.0,29.77,North,5,6.0,8.0,91,0.00,,,0.01,0,weatherlink.com 1.10,2013-04-13 08:40:00,
2013-04-13 04:55:00,39.6,37.0,29.77,NNE,15,2.0,8.0,91,0.00,,,0.01,0,weatherlink.com 1.10,2013-04-13 08:55:00,
2013-04-13 05:10:00,39.6,37.0,29.78,NNW,338,4.0,7.0,90,0.00,,,0.01,0,weatherlink.com 1.10,2013-04-13 09:10:00,
2013-04-13 06:26:00,39.0,36.0,29.81,NNW,338,3.0,10.0,89,0.00,,,0.01,7,weatherlink.com 1.10,2013-04-13 10:26:00,
2013-04-13 06:56:00,39.0,36.0,29.81,North,5,6.0,7.0,89,0.00,,,0.01,18,weatherlink.com 1.10,2013-04-13 10:56:00,
2013-04-13 07:27:00,38.8,36.0,29.82,North,350,5.0,9.0,89,0.00,,,0.01,42,weatherlink.com 1.10,2013-04-13 11:27:00,
2013-04-13 07:42:00,38.7,36.0,29.82,North,5,9.0,14.0,89,0.00,,,0.01,76,weatherlink.com 1.10,2013-04-13 11:42:00,
2013-04-13 08:27:00,39.0,36.0,29.84,North,5,0.0,8.0,88,0.00,,,0.01,139,weatherlink.com 1.10,2013-04-13 12:27:00,
2013-04-13 08:43:00,39.6,36.0,29.85,NNW,344,3.0,5.0,88,0.00,,,0.01,174,weatherlink.com 1.10,2013-04-13 12:43:00,
2013-04-13 08:58:00,39.5,36.0,29.85,North,5,5.0,9.0,87,0.00,,,0.01,237,weatherlink.com 1.10,2013-04-13 12:58:00,
2013-04-13 09:13:00,40.2,36.0,29.86,NNE,25,7.0,9.0,86,0.00,,,0.01,269,weatherlink.com 1.10,2013-04-13 13:13:00,
2013-04-13 09:28:00,40.6,37.0,29.86,NE,41,5.0,7.0,85,0.00,,,0.01,272,weatherlink.com 1.10,2013-04-13 13:28:00,
2013-04-13 09:58:00,41.8,37.0,29.85,NE,34,3.0,6.0,83,0.00,,,0.01,353,weatherlink.com 1.10,2013-04-13 13:58:00,
2013-04-13 10:13:00,42.9,38.0,29.85,North,11,4.0,4.0,82,0.00,,,0.01,455,weatherlink.com 1.10,2013-04-13 14:13:00,
2013-04-13 10:29:00,45.3,39.0,29.85,NNE,19,3.0,6.0,79,0.00,,,0.01,1018,weatherlink.com 1.10,2013-04-13 14:29:00,
2013-04-13 10:45:00,46.2,38.0,29.86,North,10,10.0,12.0,73,0.00,,,0.01,534,weatherlink.com 1.10,2013-04-13 14:45:00,
2013-04-13 10:59:00,45.9,38.0,29.86,North,5,6.0,12.0,74,0.00,,,0.01,462,weatherlink.com 1.10,2013-04-13 14:59:00,
2013-04-13 11:15:00,47.7,39.0,29.86,NW,323,3.0,10.0,71,0.00,,,0.01,963,weatherlink.com 1.10,2013-04-13 15:15:00,
2013-04-13 11:29:00,48.7,39.0,29.86,North,351,2.0,13.0,69,0.00,,,0.01,589,weatherlink.com 1.10,2013-04-13 15:29:00,
2013-04-13 11:45:00,50.4,39.0,29.85,WNW,287,0.0,7.0,65,0.00,,,0.01,490,weatherlink.com 1.10,2013-04-13 15:45:00,
2013-04-13 12:00:00,50.4,37.0,29.85,NNW,332,3.0,11.0,61,0.00,,,0.01,353,weatherlink.com 1.10,2013-04-13 16:00:00,
2013-04-13 12:15:00,51.2,38.0,29.85,WNW,287,6.0,10.0,60,0.00,,,0.01,434,weatherlink.com 1.10,2013-04-13 16:15:00,
2013-04-13 12:45:00,51.5,37.0,29.83,NNW,348,6.0,9.0,58,0.00,,,0.01,489,weatherlink.com 1.10,2013-04-13 16:45:00,
2013-04-13 13:46:00,51.7,37.0,29.83,West,279,3.0,11.0,57,0.00,,,0.01,262,weatherlink.com 1.10,2013-04-13 17:46:00,
2013-04-13 14:01:00,50.6,36.0,29.83,NNW,328,5.0,14.0,57,0.00,,,0.01,264,weatherlink.com 1.10,2013-04-13 18:01:00,
2013-04-13 14:16:00,52.2,37.0,29.83,NNW,336,1.0,11.0,57,0.00,,,0.01,889,weatherlink.com 1.10,2013-04-13 18:16:00,
2013-04-13 14:31:00,52.3,36.0,29.83,NNW,327,1.0,11.0,54,0.00,,,0.01,269,weatherlink.com 1.10,2013-04-13 18:31:00,
2013-04-13 14:46:00,52.3,35.0,29.84,WNW,283,2.0,11.0,53,0.00,,,0.01,299,weatherlink.com 1.10,2013-04-13 18:46:00,
2013-04-13 15:01:00,53.1,36.0,29.83,North,355,2.0,8.0,53,0.00,,,0.01,939,weatherlink.com 1.10,2013-04-13 19:01:00,
2013-04-13 15:17:00,54.0,37.0,29.82,NNW,335,6.0,11.0,53,0.00,,,0.01,230,weatherlink.com 1.10,2013-04-13 19:17:00,
2013-04-13 15:32:00,54.2,36.0,29.83,SSW,211,5.0,7.0,51,0.00,,,0.01,953,weatherlink.com 1.10,2013-04-13 19:32:00,
2013-04-13 15:47:00,55.6,38.0,29.83,WNW,290,4.0,10.0,51,0.00,,,0.01,963,weatherlink.com 1.10,2013-04-13 19:47:00,
2013-04-13 16:02:00,53.6,36.0,29.83,West,279,3.0,9.0,51,0.00,,,0.01,225,weatherlink.com 1.10,2013-04-13 20:02:00,
2013-04-13 16:17:00,54.4,36.0,29.83,WNW,285,2.0,10.0,50,0.00,,,0.01,814,weatherlink.com 1.10,2013-04-13 20:17:00,
2013-04-13 16:32:00,54.2,36.0,29.84,WNW,303,1.0,11.0,51,0.00,,,0.01,234,weatherlink.com 1.10,2013-04-13 20:32:00,
2013-04-13 16:47:00,54.4,36.0,29.84,West,277,1.0,9.0,51,0.00,,,0.01,183,weatherlink.com 1.10,2013-04-13 20:47:00,
2013-04-13 17:02:00,53.1,38.0,29.84,SSW,205,4.0,12.0,58,0.00,,,0.01,181,weatherlink.com 1.10,2013-04-13 21:02:00,
2013-04-13 17:18:00,52.8,39.0,29.84,WSW,249,6.0,11.0,59,0.00,,,0.01,151,weatherlink.com 1.10,2013-04-13 21:18:00,
2013-04-13 17:33:00,52.0,37.0,29.85,SW,232,8.0,10.0,58,0.00,,,0.01,151,weatherlink.com 1.10,2013-04-13 21:33:00,
2013-04-13 17:48:00,52.3,37.0,29.86,SSW,205,6.0,12.0,57,0.00,,,0.01,90,weatherlink.com 1.10,2013-04-13 21:48:00,
2013-04-13 18:03:00,52.0,37.0,29.87,SSW,205,7.0,7.0,57,0.00,,,0.01,77,weatherlink.com 1.10,2013-04-13 22:03:00,
2013-04-13 18:18:00,51.6,37.0,29.88,WSW,248,4.0,8.0,57,0.00,,,0.01,70,weatherlink.com 1.10,2013-04-13 22:18:00,
2013-04-13 18:33:00,51.5,37.0,29.88,SW,223,4.0,8.0,57,0.00,,,0.01,58,weatherlink.com 1.10,2013-04-13 22:33:00,
2013-04-13 18:48:00,51.3,37.0,29.88,SSW,192,0.0,7.0,58,0.00,,,0.01,39,weatherlink.com 1.10,2013-04-13 22:48:00,
2013-04-13 19:03:00,51.0,37.0,29.88,SW,222,0.0,3.0,59,0.00,,,0.01,30,weatherlink.com 1.10,2013-04-13 23:03:00,
2013-04-13 19:19:00,50.5,36.0,29.86,SW,222,0.0,2.0,59,0.00,,,0.01,9,weatherlink.com 1.10,2013-04-13 23:19:00,
2013-04-13 19:35:00,49.7,37.0,29.88,SW,222,0.0,1.0,62,0.00,,,0.01,0,weatherlink.com 1.10,2013-04-13 23:35:00,
2013-04-13 19:49:00,47.9,38.0,29.90,SW,222,0.0,0.0,68,0.00,,,0.01,0,weatherlink.com 1.10,2013-04-13 23:49:00,
2013-04-13 20:05:00,47.5,38.0,29.90,SW,222,0.0,0.0,69,0.00,,,0.01,0,weatherlink.com 1.10,2013-04-14 00:05:00,
2013-04-13 20:19:00,47.2,39.0,29.90,SW,222,0.0,0.0,72,0.00,,,0.01,0,weatherlink.com 1.10,2013-04-14 00:19:00,
2013-04-13 20:35:00,46.7,38.0,29.91,SW,222,0.0,0.0,73,0.00,,,0.01,0,weatherlink.com 1.10,2013-04-14 00:35:00,
2013-04-13 20:49:00,46.7,39.0,29.91,SW,222,0.0,0.0,74,0.00,,,0.01,0,weatherlink.com 1.10,2013-04-14 00:49:00,
2013-04-13 21:05:00,45.6,38.0,29.91,SW,222,0.0,1.0,75,0.00,,,0.01,0,weatherlink.com 1.10,2013-04-14 01:05:00,
2013-04-13 21:20:00,44.8,38.0,29.92,SW,222,0.0,0.0,77,0.00,,,0.01,0,weatherlink.com 1.10,2013-04-14 01:20:00,
2013-04-13 21:35:00,43.8,38.0,29.93,SW,222,0.0,0.0,80,0.00,,,0.01,0,weatherlink.com 1.10,2013-04-14 01:35:00,
2013-04-13 21:50:00,43.2,38.0,29.93,SW,222,0.0,0.0,82,0.00,,,0.01,0,weatherlink.com 1.10,2013-04-14 01:50:00,
2013-04-13 22:05:00,43.2,38.0,29.94,SW,222,0.0,0.0,83,0.00,,,0.01,0,weatherlink.com 1.10,2013-04-14 02:05:00,
2013-04-13 22:20:00,45.2,40.0,29.94,South,183,3.0,6.0,81,0.00,,,0.01,0,weatherlink.com 1.10,2013-04-14 02:20:00,
2013-04-13 22:35:00,45.9,40.0,29.94,SW,215,3.0,4.0,79,0.00,,,0.01,0,weatherlink.com 1.10,2013-04-14 02:35:00,
2013-04-13 22:51:00,45.2,39.0,29.95,SW,215,0.0,3.0,80,0.00,,,0.01,0,weatherlink.com 1.10,2013-04-14 02:51:00,
2013-04-13 23:06:00,44.8,39.0,29.95,SW,216,2.0,3.0,81,0.00,,,0.01,0,weatherlink.com 1.10,2013-04-14 03:06:00,
2013-04-13 23:21:00,43.8,39.0,29.95,SW,216,0.0,0.0,84,0.00,,,0.01,0,weatherlink.com 1.10,2013-04-14 03:21:00,
2013-04-13 23:36:00,42.7,39.0,29.94,SW,216,0.0,0.0,86,0.00,,,0.01,0,weatherlink.com 1.10,2013-04-14 03:36:00,
2013-04-13 23:51:00,41.7,38.0,29.94,SW,216,0.0,0.0,88,0.00,,,0.01,0,weatherlink.com 1.10,2013-04-14 03:51:00,